When you browse on this site, cookies collect data to enhance your experience and personalize the content and advertising you see.
Visit our Privacy Policy to learn more. By continuing to use the site, you agree to this use of cookies and data.
  • en Suisse
  • Liste des pays
  • À 7 jours
  • Température de l'eau
  • Carte météo
  • Widgets météo
  • user-avatar
    Se connecter

    Météo par heure à Bar

    Ce jour, 27 Février, Jeudi

    Heure Température Précipitation Vent Pression Humidité
    00:00 -5°C° 1 mm 5 m/s 601 mmHg 94%
    01:00 -5°C° 0 mm 5 m/s 601 mmHg 94%
    02:00 -5°C° 2.2 mm 4 m/s 601 mmHg 94%
    03:00 -5°C° 2.2 mm 4 m/s 600 mmHg 95%
    04:00 -5°C° 2.2 mm 3 m/s 600 mmHg 96%
    05:00 -6°C° 2.1 mm 3 m/s 600 mmHg 96%
    06:00 -7°C° 2.1 mm 3 m/s 601 mmHg 96%
    07:00 -8°C° 2.1 mm 3 m/s 601 mmHg 97%
    08:00 -8°C° 1.9 mm 3 m/s 601 mmHg 94%
    09:00 -8°C° 1.9 mm 3 m/s 602 mmHg 92%
    10:00 -8°C° 1.9 mm 3 m/s 602 mmHg 89%
    11:00 -7°C° 0.8 mm 3 m/s 603 mmHg 86%
    12:00 -7°C° 0.8 mm 3 m/s 604 mmHg 83%
    13:00 -6°C° 0.8 mm 3 m/s 605 mmHg 80%
    14:00 -5°C° 0.1 mm 2 m/s 606 mmHg 79%
    15:00 -5°C° 0.1 mm 2 m/s 606 mmHg 78%
    16:00 -3°C° 0.1 mm 1 m/s 606 mmHg 76%
    17:00 -6°C° 0 mm 1 m/s 606 mmHg 79%
    18:00 -7°C° 0 mm 1 m/s 606 mmHg 82%
    19:00 -9°C° 0 mm 1 m/s 606 mmHg 85%
    20:00 -9°C° 0 mm 1 m/s 606 mmHg 86%
    21:00 -9°C° 0 mm 1 m/s 606 mmHg 87%
    22:00 -9°C° 0 mm 1 m/s 606 mmHg 89%
    23:00 -10°C° 0 mm 2 m/s 606 mmHg 89%

    Demain, 28 Février, Vendredi

    Heure Température Précipitation Vent Pression Humidité
    00:00 -9°C° 0 mm 2 m/s 606 mmHg 90%
    01:00 -9°C° 0 mm 2 m/s 606 mmHg 91%
    02:00 -9°C° 0.1 mm 3 m/s 605 mmHg 92%
    03:00 -9°C° 0.1 mm 3 m/s 605 mmHg 92%
    04:00 -8°C° 0.1 mm 3 m/s 605 mmHg 93%
    05:00 -8°C° 0.5 mm 3 m/s 605 mmHg 94%
    06:00 -8°C° 0.5 mm 3 m/s 605 mmHg 95%
    07:00 -8°C° 0.5 mm 3 m/s 604 mmHg 96%
    08:00 -7°C° 2.9 mm 3 m/s 605 mmHg 97%
    09:00 -7°C° 2.9 mm 3 m/s 605 mmHg 98%
    10:00 -5°C° 2.9 mm 2 m/s 605 mmHg 98%
    11:00 -5°C° 4.2 mm 2 m/s 606 mmHg 97%
    12:00 -5°C° 4.2 mm 2 m/s 606 mmHg 96%
    13:00 -6°C° 4.2 mm 2 m/s 606 mmHg 94%
    14:00 -5°C° 0.1 mm 2 m/s 607 mmHg 92%
    15:00 -5°C° 0.1 mm 2 m/s 608 mmHg 90%
    16:00 -5°C° 0.1 mm 2 m/s 609 mmHg 88%
    17:00 -7°C° 0 mm 2 m/s 609 mmHg 87%
    18:00 -9°C° 0 mm 3 m/s 608 mmHg 85%
    19:00 -12°C° 0 mm 3 m/s 608 mmHg 84%
    20:00 -12°C° 0 mm 3 m/s 609 mmHg 84%
    21:00 -13°C° 0 mm 3 m/s 609 mmHg 85%
    22:00 -13°C° 0 mm 3 m/s 609 mmHg 85%
    23:00 -14°C° 0 mm 3 m/s 609 mmHg 85%

    Après-demain, 29 Février, Samedi

    Heure Température Précipitation Vent Pression Humidité
    00:00 -14°C° 0 mm 3 m/s 610 mmHg 85%
    01:00 -14°C° 0 mm 3 m/s 610 mmHg 85%
    02:00 -14°C° 0 mm 3 m/s 610 mmHg 84%
    03:00 -14°C° 0 mm 2 m/s 610 mmHg 83%
    04:00 -14°C° 0 mm 2 m/s 609 mmHg 82%
    05:00 -14°C° 0 mm 2 m/s 610 mmHg 78%
    06:00 -13°C° 0 mm 2 m/s 610 mmHg 75%
    07:00 -13°C° 0 mm 2 m/s 610 mmHg 72%
    08:00 -9°C° 0 mm 1 m/s 611 mmHg 74%
    09:00 -6°C° 0 mm 1 m/s 612 mmHg 76%
    10:00 -4°C° 0 mm 0 m/s 613 mmHg 78%
    11:00 -3°C° 0 mm 0 m/s 612 mmHg 81%
    12:00 -2°C° 0 mm 1 m/s 612 mmHg 84%
    13:00 -1°C° 0 mm 1 m/s 612 mmHg 88%
    14:00 -1°C° 0 mm 1 m/s 612 mmHg 87%
    15:00 -2°C° 0 mm 1 m/s 611 mmHg 85%
    16:00 -2°C° 0 mm 1 m/s 611 mmHg 84%
    17:00 -3°C° 0 mm 1 m/s 610 mmHg 77%
    18:00 -4°C° 0 mm 1 m/s 610 mmHg 70%
    19:00 -7°C° 0 mm 1 m/s 609 mmHg 63%
    20:00 -8°C° 0 mm 2 m/s 609 mmHg 63%
    21:00 -8°C° 0 mm 2 m/s 609 mmHg 63%
    22:00 -8°C° 0 mm 2 m/s 609 mmHg 63%
    23:00 -8°C° 0 mm 2 m/s 609 mmHg 66%

    1 Mars, Dimanche

    Heure Température Précipitation Vent Pression Humidité
    00:00 -7°C° 0 mm 2 m/s 609 mmHg 68%
    01:00 -7°C° 0 mm 2 m/s 609 mmHg 70%
    02:00 -7°C° 0 mm 2 m/s 609 mmHg 74%
    03:00 -8°C° 0 mm 2 m/s 609 mmHg 77%
    04:00 -8°C° 0 mm 2 m/s 609 mmHg 80%
    05:00 -7°C° 0 mm 2 m/s 609 mmHg 84%
    06:00 -6°C° 0 mm 2 m/s 609 mmHg 88%
    07:00 -5°C° 0 mm 2 m/s 610 mmHg 93%
    08:00 -4°C° 0 mm 2 m/s 610 mmHg 94%
    09:00 -4°C° 0 mm 2 m/s 610 mmHg 95%
    10:00 -3°C° 0 mm 2 m/s 610 mmHg 96%
    11:00 -3°C° 0 mm 2 m/s 610 mmHg 96%
    12:00 -2°C° 0 mm 2 m/s 610 mmHg 96%
    13:00 -2°C° 0 mm 2 m/s 609 mmHg 96%
    14:00 -2°C° 0.1 mm 2 m/s 609 mmHg 96%
    15:00 -3°C° 0.1 mm 2 m/s 608 mmHg 97%
    16:00 -3°C° 0.1 mm 2 m/s 608 mmHg 97%
    17:00 -3°C° 0.5 mm 2 m/s 608 mmHg 97%
    18:00 -3°C° 0.5 mm 2 m/s 608 mmHg 97%
    19:00 -2°C° 0.5 mm 2 m/s 608 mmHg 98%
    20:00 -2°C° 1.1 mm 3 m/s 608 mmHg 98%
    21:00 -2°C° 1.1 mm 3 m/s 608 mmHg 98%
    22:00 -2°C° 1.1 mm 3 m/s 608 mmHg 98%
    23:00 -2°C° 2.3 mm 3 m/s 607 mmHg 98%

    2 Mars, Lundi

    Heure Température Précipitation Vent Pression Humidité
    00:00 -2°C° 2.3 mm 3 m/s 607 mmHg 98%
    01:00 -3°C° 2.3 mm 4 m/s 607 mmHg 99%
    02:00 -2°C° 4.1 mm 4 m/s 606 mmHg 99%
    03:00 -2°C° 4.1 mm 4 m/s 606 mmHg 99%
    04:00 -2°C° 4.1 mm 4 m/s 605 mmHg 99%
    05:00 -2°C° 5.9 mm 4 m/s 605 mmHg 99%
    06:00 -2°C° 5.9 mm 4 m/s 605 mmHg 99%
    07:00 -2°C° 5.9 mm 5 m/s 605 mmHg 99%
    08:00 -1°C° 1.9 mm 5 m/s 605 mmHg 98%
    09:00 -2°C° 1.9 mm 6 m/s 605 mmHg 97%
    10:00 -2°C° 1.9 mm 6 m/s 606 mmHg 96%
    11:00 -2°C° 0.5 mm 6 m/s 606 mmHg 95%
    12:00 -3°C° 0.5 mm 6 m/s 605 mmHg 93%
    13:00 -2°C° 0.5 mm 5 m/s 605 mmHg 92%
    14:00 -2°C° 0.3 mm 5 m/s 605 mmHg 92%
    15:00 -2°C° 0.3 mm 4 m/s 605 mmHg 92%
    16:00 -2°C° 0.3 mm 4 m/s 605 mmHg 92%
    17:00 -1°C° 0.2 mm 3 m/s 605 mmHg 93%
    18:00 -1°C° 0.2 mm 3 m/s 606 mmHg 95%
    19:00 -2°C° 0.2 mm 2 m/s 606 mmHg 97%
    20:00 -2°C° 0.2 mm 2 m/s 606 mmHg 97%
    21:00 -2°C° 0.2 mm 2 m/s 606 mmHg 97%
    22:00 -2°C° 0.2 mm 2 m/s 606 mmHg 97%
    23:00 -2°C° 0.1 mm 2 m/s 606 mmHg 97%

    3 Mars, Mardi

    Heure Température Précipitation Vent Pression Humidité
    00:00 -2°C° 0.1 mm 2 m/s 605 mmHg 97%
    01:00 -2°C° 0.1 mm 2 m/s 605 mmHg 97%
    02:00 -2°C° 0.6 mm 2 m/s 605 mmHg 97%
    03:00 -2°C° 0.6 mm 2 m/s 604 mmHg 97%
    04:00 -1°C° 0.6 mm 2 m/s 603 mmHg 97%
    05:00 -1°C° 4.2 mm 2 m/s 603 mmHg 97%
    06:00 -1°C° 4.2 mm 3 m/s 603 mmHg 98%
    07:00 -1°C° 4.2 mm 3 m/s 603 mmHg 98%
    08:00 -1°C° 6.2 mm 3 m/s 603 mmHg 99%
    09:00 -1°C° 6.2 mm 2 m/s 603 mmHg 99%
    10:00 -1°C° 6.2 mm 2 m/s 603 mmHg 99%
    11:00 -1°C° 6.2 mm 2 m/s 602 mmHg 98%
    12:00 -2°C° 6.2 mm 2 m/s 602 mmHg 98%
    13:00 -2°C° 6.2 mm 2 m/s 602 mmHg 98%
    14:00 0°C° 2.8 mm 1 m/s 601 mmHg 98%
    15:00 0°C° 2.8 mm 1 m/s 601 mmHg 97%
    16:00 0°C° 2.8 mm 1 m/s 601 mmHg 97%
    17:00 0°C° 3.4 mm 1 m/s 601 mmHg 97%
    18:00 0°C° 3.4 mm 1 m/s 601 mmHg 97%
    19:00 -1°C° 3.4 mm 1 m/s 601 mmHg 97%
    20:00 -1°C° 1.9 mm 1 m/s 601 mmHg 97%
    21:00 -1°C° 1.9 mm 1 m/s 602 mmHg 96%
    22:00 -1°C° 1.9 mm 1 m/s 602 mmHg 96%
    23:00 0°C° 0.9 mm 1 m/s 601 mmHg 96%
    Voir plus